Location: Forcarei
(42.5879°N, 8.3520°W)
Time: 19:24:55
(UTC+02:00)

Hubble Space Telescope - Visible Passes

Search period start: 23 October 2017 00:00
Search period end: 01 November 2017 23:00
Orbit: 537 x 541 km, 28.5° (Epoch: 23 October)

Date Brightness Start Highest point End Pass type
(mag) Time Alt. Az. Time Alt. Az. Time Alt. Az.
23 Oct 3.3 21:13:22 10° S 21:13:38 10° S 21:13:54 10° SSE visible
24 Oct 3.2 21:02:18 10° S 21:03:18 11° S 21:04:17 10° SSE visible
25 Oct 3.2 20:51:43 10° SSW 20:52:58 11° S 20:54:12 10° SSE visible
26 Oct 3.3 20:41:19 10° SSW 20:42:37 11° S 20:43:56 10° SSE visible
27 Oct 3.3 20:31:02 10° SSW 20:32:17 11° S 20:33:33 10° SSE visible
28 Oct 3.4 20:20:54 10° SSW 20:21:57 11° S 20:22:59 10° S visible
29 Oct 3.6 19:11:07 10° SSW 19:11:36 10° S 19:12:06 10° S visible
